Regional Weather Roundup
Issued by NWS Cleveland, OH

Home | Current Version | Previous Version | Text Only | Print | Product List | Glossary Off
Versions: 1 2 3 4 5 6 7 8 9 10 11 12 13 14 15 16 17 18 19 20 21 22 23 24 25 26 27 28 29 30 31 32 33 34 35 36 37 38 39 40 41 42 43 44 45 46 47 48 49 50

000
ASUS41 KCLE 071310
RWRCLE
OHIO REGIONAL WEATHER ROUNDUP
NATIONAL WEATHER SERVICE WILMINGTON, OH
800 AM EST WED DEC 07 2016

NOTE: "FAIR" INDICATES FEW OR NO CLOUDS BELOW 12,000 FEET WITH NO
SIGNIFICANT WEATHER AND/OR OBSTRUCTIONS TO VISIBILITY.

OHZ001>008-015>018-024>027-034-035-043-044-071400-
   NORTHWEST OHIO

CITY           SKY/WX    TMP DP  RH WIND       PRES   REMARKS
DEFIANCE       FAIR      27  19  72 SW6       30.08R WCI  20
FINDLAY        FAIR      27  20  75 SW9       30.08R WCI  18
TOLEDO EXPRESS FAIR      27  22  81 SW12      30.06R WCI  17
TOLEDO EXEC    FAIR      27  23  85 SW10      30.07R WCI  17
LIMA           FAIR      25  21  85 W7        30.08R WCI  17
$$

OHZ009>014-019>023-028>033-038-089-071400-
   NORTHEAST OHIO

CITY           SKY/WX    TMP DP  RH WIND       PRES   REMARKS
CLE-HOPKINS    CLOUDY    31  23  72 W12       30.07R WCI  22
CLE-LAKEFRONT  CLOUDY    32  23  69 SW15G23   30.04R WCI  22
CUY CO. ARPT   CLOUDY    32  28  86 SW12      30.04R WCI  23
LORAIN-ELYRIA  CLOUDY    29  22  75 W16       30.06R WCI  17
ASHTABULA      CLOUDY    33  26  75 SW14      30.02R WCI  23
AKRON-CANTON   MOCLDY    31  24  75 W7        30.04S WCI  24
WOOSTER        FAIR      28  23  81 SW9       30.06R WCI  19
MANSFIELD      FAIR      27  23  85 SW9       30.05R WCI  18
YOUNGSTOWN     MOCLDY    32  25  75 W12       30.03R WCI  23
$$

OHZ042-051>053-060>062-070>072-077>081-071400-
  SOUTHWEST OHIO

CITY           SKY/WX    TMP DP  RH WIND       PRES   REMARKS
CINC-COVINGTON MOCLDY    30  25  81 W5        30.14R WCI  25
CINC-LUNKEN    FAIR      32  24  72 CALM      30.17R
HAMILTON       FAIR      27  24  89 CALM      30.16R
DAYTON         FAIR      24  19  81 SW6       30.12R WCI  17
WRIGHT-PAT AFB FAIR      23  21  93 SW5       30.12R WCI  17
DAYTON GENERAL FAIR      28  21  75 SW5       30.12R WCI  23
WILMINGTON     FAIR      28  24  85 SW5       30.12R WCI  23
$$

OHZ036-037-039>041-045>050-054>059-063>069-073>076-082>088-071400-
  CENTRAL AND SOUTHEAST OHIO

CITY           SKY/WX    TMP DP  RH WIND       PRES   REMARKS
COLUMBUS       MOCLDY    29  26  89 W6        30.10S WCI  23
OSU AIRPORT    FAIR      26  23  88 W6        30.10R WCI  19
BOLTON FIELD   CLEAR     27  23  86 CALM      30.10R
RICKENBACK AFB   N/A     27  25  90 CALM      30.10F
NEWARK         FAIR      29  25  85 SW3       30.09S
MARION         FAIR      25  21  85 SW6       30.08R WCI  18
LANCASTER      FAIR      29  26  89 CALM      30.11S
ZANESVILLE     FAIR      31  26  82 W6        30.10R WCI  25
NEW PHILLY     FAIR      32  27  81 SW6       30.09R WCI  26
$$



USA.gov is the U.S. government's official web portal to all federal, state and local government web resources and services.